Location: Waldport
(44.4270°N, 124.0680°W)
Time: 10:19:33
(UTC-07:00)

Amateur Radio Satellites - All Passes

Search period start: 27 July 2016 09:49
Search period end: 28 July 2016 09:49
Location: Waldport, 44.4270°N, 124.0680°W

Satellite Date Start Highest point End Downlink Frequencies (MHz)
Time Altitude Azimuth
PRISM 27 Jul 09:53:27 09:56:50 25° 264° (W) 10:00:14 437.425
Cosmos 2491 27 Jul 10:02:01 10:10:38 65° 268° (W) 10:19:15 435.465 / 435.565
ANTELSAT 27 Jul 10:03:49 10:08:02 36° 69° (ENE) 10:12:20 437.575/2403.000
SEEDS 27 Jul 10:04:30 10:08:32 49° 287° (WNW) 10:12:32 437.485
SO-50 27 Jul 10:06:25 10:10:49 33° 315° (NW) 10:15:12 436.795
FUNcube-1 27 Jul 10:15:25 10:19:44 44° 98° (E) 10:23:56 145.935
COMPASS 1 27 Jul 10:16:00 10:20:02 52° 287° (WNW) 10:24:02 437.405
UWE-3 27 Jul 10:16:03 10:20:42 74° 103° (ESE) 10:25:11 435.000/436.395/437.385
ZACube-1 27 Jul 10:16:24 10:20:47 48° 98° (E) 10:25:03 437.345
M-CUBED/EXP-1 PRIME 27 Jul 10:36:18 10:40:01 23° 98° (E) 10:43:43 437.505
NANOSAT C BR1 27 Jul 10:36:32 10:38:19 12° 60° (ENE) 10:40:07 145.865
CUBEBUG 2 27 Jul 10:38:38 10:43:11 47° 289° (WNW) 10:47:37 437.445
DUCHIFAT 1 27 Jul 10:40:34 10:42:29 13° 61° (ENE) 10:44:25 145.980
AAUSAT CUBESAT 2 27 Jul 10:44:26 10:48:07 32° 291° (WNW) 10:51:47 437.432
TIGRISAT 27 Jul 10:44:57 10:49:34 86° 79° (E) 10:54:19 435.000
CANX-2 27 Jul 10:49:42 10:51:30 12° 299° (WNW) 10:53:16 2200.000
HO-68 27 Jul 10:51:49 10:58:08 35° 300° (WNW) 11:04:27 435.675
QB50P1 27 Jul 10:57:25 11:00:37 21° 65° (ENE) 11:03:50 145.935-145.965
Oscar 11 27 Jul 10:57:43 11:02:00 60° 286° (WNW) 11:06:13 145.826/435.025
UNISAT 6 27 Jul 11:01:29 11:06:04 62° 259° (W) 11:10:45 437.425
AUBIESAT-1 27 Jul 11:01:56 11:06:08 33° 101° (ESE) 11:10:18 437.475
POPSAT HIP 1 27 Jul 11:03:37 11:07:02 24° 66° (ENE) 11:10:28 437.405
CUTE 1.7 + AOD 2 27 Jul 11:04:02 11:04:47 10° 301° (WNW) 11:05:32 437.475
DELFI C3 27 Jul 11:05:14 11:09:12 76° 102° (ESE) 11:13:07 145.870
RS-15 27 Jul 11:07:24 11:17:41 32° 343° (NNW) 11:28:20 29.354- 29.394
Cosmos 2504 27 Jul 11:11:20 11:19:54 56° 90° (E) 11:28:25 435.465 / 435.565
CINEMA 3 27 Jul 11:12:29 11:13:20 10° 304° (WNW) 11:14:11 145.822/145.860
QB50P2 27 Jul 11:23:56 11:27:54 40° 71° (ENE) 11:31:56 145.880/145.840
POLYITAN 1 27 Jul 11:26:32 11:30:33 41° 70° (ENE) 11:34:36 437.675
HUMSAT D 27 Jul 11:29:18 11:33:30 65° 101° (E) 11:37:36 437.325/437.525
YUBILEINY 27 Jul 11:32:19 11:40:44 48° 287° (WNW) 11:49:15 435.215
JAS-2 27 Jul 11:35:16 11:39:42 23° 63° (ENE) 11:43:51 435.910
ANTELSAT 27 Jul 11:40:55 11:44:48 26° 266° (W) 11:48:45 437.575/2403.000
FUNcube-1 27 Jul 11:52:22 11:55:39 20° 296° (WNW) 11:58:53 145.935
ZACube-1 27 Jul 11:53:32 11:56:42 19° 297° (WNW) 11:59:48 437.345
UWE-3 27 Jul 11:54:09 11:56:31 14° 300° (WNW) 11:58:50 435.000/436.395/437.385
Cosmos 2491 27 Jul 12:02:35 12:05:36 12° 289° (WNW) 12:08:38 435.465 / 435.565
NANOSAT C BR1 27 Jul 12:09:14 12:13:28 73° 259° (W) 12:17:44 145.865
ESTCUBE 1 27 Jul 12:09:42 12:13:42 31° 96° (E) 12:17:40 437.505/2401.250
M-CUBED/EXP-1 PRIME 27 Jul 12:10:12 12:14:40 45° 295° (WNW) 12:19:09 437.505
DUCHIFAT 1 27 Jul 12:13:25 12:17:37 70° 258° (WSW) 12:21:53 145.980
SPROUT 27 Jul 12:21:09 12:22:23 11° 88° (E) 12:23:36 437.525
50 SAT 27 Jul 12:24:20 12:27:16 23° 95° (E) 12:30:12 437.505
VELOX 1 27 Jul 12:25:28 12:29:13 26° 95° (E) 12:32:57 145.980
CUBEBUG 1 27 Jul 12:25:53 12:29:47 30° 96° (E) 12:33:41 437.445
TIGRISAT 27 Jul 12:25:54 12:26:55 11° 273° (W) 12:27:56 435.000
BUGSAT 1 27 Jul 12:26:58 12:31:03 74° 74° (ENE) 12:35:12 437.445
QB50P1 27 Jul 12:32:11 12:36:08 38° 262° (W) 12:40:10 145.935-145.965
AUBIESAT-1 27 Jul 12:36:25 12:40:29 31° 298° (WNW) 12:44:33 437.475
POPSAT HIP 1 27 Jul 12:38:48 12:42:39 33° 263° (W) 12:46:34 437.405
DELFI C3 27 Jul 12:42:46 12:43:27 10° 299° (WNW) 12:44:08 145.870
AIST 1 27 Jul 12:53:59 12:56:14 14° 84° (E) 12:58:28
QB50P2 27 Jul 13:00:49 13:03:53 19° 267° (W) 13:06:59 145.880/145.840
POLYITAN 1 27 Jul 13:03:29 13:06:32 19° 268° (W) 13:09:37 437.675
Cosmos 2504 27 Jul 13:05:33 13:13:36 37° 291° (WNW) 13:21:39 435.465 / 435.565
AO-7 27 Jul 13:05:35 13:07:33 11° 36° (NE) 13:09:31 29.400- 29.500
HUMSAT D 27 Jul 13:06:36 13:08:35 13° 299° (WNW) 13:10:32 437.325/437.525
DX 1 27 Jul 13:08:38 13:12:56 53° 101° (E) 13:17:13 434.975-435.025
AISAT 27 Jul 13:09:51 13:14:20 80° 103° (ESE) 13:18:48 437.250
Gurwin Techsat 1B 27 Jul 13:13:04 13:17:01 22° 61° (ENE) 13:20:57 435.225
JAS-2 27 Jul 13:18:37 13:24:31 56° 259° (W) 13:29:53 435.910
UKube-1 27 Jul 13:21:46 13:26:02 58° 101° (E) 13:30:19 .
RS-15 27 Jul 13:24:32 13:35:06 32° 18° (NNE) 13:45:46 29.354- 29.394
Oscar 19 27 Jul 13:28:26 13:33:26 58° 72° (ENE) 13:38:29 437.125/150
ITAMSAT 1 27 Jul 13:29:05 13:30:03 10° 54° (NE) 13:31:00 435.822/435.867
YUBILEINY 27 Jul 13:39:34 13:40:17 10° 312° (NW) 13:41:00 435.215
ESTCUBE 1 27 Jul 13:46:36 13:50:25 28° 293° (WNW) 13:54:14 437.505/2401.250
SPROUT 27 Jul 13:54:30 13:58:50 73° 285° (WNW) 14:03:07 437.525
50 SAT 27 Jul 13:57:56 14:00:51 23° 292° (WNW) 14:03:45 437.505
AO-85 27 Jul 14:00:04 14:05:02 39° 117° (ESE) 14:09:50 145.980
VELOX 1 27 Jul 14:01:43 14:05:41 32° 292° (WNW) 14:09:39 145.980
CUBEBUG 1 27 Jul 14:02:15 14:05:59 28° 293° (WNW) 14:09:43 437.445
Cosmos 2499 27 Jul 14:17:26 14:19:40 11° 71° (ENE) 14:21:54 435.465 / 435.565
AIST 1 27 Jul 14:29:12 14:33:20 51° 282° (WNW) 14:37:31
DX 1 27 Jul 14:45:54 14:48:43 17° 298° (WNW) 14:51:33 434.975-435.025
AISAT 27 Jul 14:48:19 14:50:10 12° 301° (WNW) 14:52:01 437.250
TISAT 1 27 Jul 14:48:39 14:52:56 79° 284° (WNW) 14:57:10 437.305
AO-7 27 Jul 14:50:25 14:58:03 41° 59° (ENE) 15:05:42 29.400- 29.500
Gurwin Techsat 1B 27 Jul 14:51:18 14:56:32 58° 259° (W) 15:01:48 435.225
UKube-1 27 Jul 14:59:04 15:01:38 16° 299° (WNW) 15:04:12 .
SWISSCUBE 27 Jul 14:59:19 15:03:26 28° 95° (E) 15:07:31 437.505
ITAMSAT 1 27 Jul 15:03:21 15:08:32 67° 72° (ENE) 15:13:44 435.822/435.867
Oscar 19 27 Jul 15:09:36 15:13:08 19° 269° (W) 15:16:42 437.125/150
SO-50 27 Jul 15:16:23 15:18:34 13° 29° (NNE) 15:20:44 436.795
BEESAT 27 Jul 15:20:23 15:24:55 41° 98° (E) 15:29:23 436.000
CUSAT 1 27 Jul 15:30:21 15:33:15 56° 261° (W) 15:36:49 437.405
RS-15 27 Jul 15:38:14 15:50:34 66° 48° (NE) 16:02:46 29.354- 29.394
GONETS M04 27 Jul 15:39:51 15:48:13 57° 91° (E) 15:56:41
AO-85 27 Jul 15:40:39 15:45:34 37° 314° (NW) 15:50:17 145.980
ITUPSAT 1 27 Jul 15:43:38 15:48:25 69° 102° (ESE) 15:53:08 437.325
HORYU 2 27 Jul 15:47:30 15:48:35 11° 58° (ENE) 15:49:41 437.375
DANDE 27 Jul 15:57:23 15:59:59 79° 81° (E) 16:02:49 436.750
MOZHAYETS 4 27 Jul 15:58:58 16:01:23 14° 89° (E) 16:03:46
Cosmos 2499 27 Jul 16:02:19 16:10:57 59° 91° (E) 16:19:22 435.465 / 435.565
SWISSCUBE 27 Jul 16:36:59 16:41:15 34° 293° (WNW) 16:45:29 437.505
AO-7 27 Jul 16:42:33 16:50:38 52° 258° (WSW) 16:58:47 29.400- 29.500
ITAMSAT 1 27 Jul 16:45:13 16:48:29 17° 270° (W) 16:51:46 435.822/435.867
CUTE-I 27 Jul 16:50:20 16:51:06 10° 53° (NE) 16:51:54 437.470
SO-50 27 Jul 16:55:31 17:00:07 55° 50° (NE) 17:04:34 436.795
KKS-1 27 Jul 16:56:32 17:00:54 48° 100° (E) 17:05:14 437.445
BEESAT 27 Jul 16:58:39 17:02:28 24° 296° (WNW) 17:06:15 436.000
PHONESAT 2.4 27 Jul 17:04:27 17:05:48 12° 153° (SSE) 17:07:09 2401.200-2431.200
NOAA 15 27 Jul 17:05:49 17:09:18 18° 59° (ENE) 17:12:48 137.62
HORYU 2 27 Jul 17:19:55 17:24:24 86° 76° (ENE) 17:28:56 437.375
CUBESAT XI-V 27 Jul 17:19:59 17:21:52 12° 88° (E) 17:23:44 437.345
ITUPSAT 1 27 Jul 17:22:52 17:25:42 16° 300° (WNW) 17:28:31 437.325
AO-85 27 Jul 17:26:15 17:27:26 11° 335° (NNW) 17:28:37 145.980
GOMX 1 27 Jul 17:26:31 17:27:46 11° 58° (ENE) 17:29:01 467.674
NOAA 18 27 Jul 17:26:36 17:30:50 23° 60° (ENE) 17:35:05 137.9125
STARS 27 Jul 17:33:51 17:38:17 60° 101° (ESE) 17:42:40 437.465
MOZHAYETS 4 27 Jul 17:34:27 17:38:59 63° 286° (WNW) 17:43:29
GONETS M04 27 Jul 17:37:43 17:45:27 35° 292° (WNW) 17:53:16
RS-15 27 Jul 17:51:22 18:02:37 44° 252° (WSW) 18:13:43 29.354- 29.394
HO-68 27 Jul 17:53:30 17:54:37 10° 43° (NE) 17:55:44 435.675
Cosmos 2499 27 Jul 17:56:33 18:04:28 35° 291° (WNW) 18:12:12 435.465 / 435.565
Cubesat XI-IV 27 Jul 18:01:42 18:06:42 40° 68° (ENE) 18:11:42 437.490
BRITE-PL 27 Jul 18:01:49 18:05:51 53° 73° (ENE) 18:09:57 437.365/2234.400
CUTE-I 27 Jul 18:24:49 18:30:07 64° 72° (ENE) 18:35:27 437.470
KKS-1 27 Jul 18:33:56 18:37:07 19° 297° (WNW) 18:40:18 437.445
SO-50 27 Jul 18:36:54 18:40:10 19° 249° (WSW) 18:43:21 436.795
PHONESAT 2.4 27 Jul 18:38:58 18:41:45 31° 169° (S) 18:44:33 2401.200-2431.200
LilacSat-2 27 Jul 18:41:54 18:45:48 88° 75° (ENE) 18:49:43 437.200
NOAA 15 27 Jul 18:43:20 18:48:32 68° 257° (WSW) 18:53:47 137.62
DOVE 4 27 Jul 18:51:16 18:55:14 37° 69° (ENE) 18:59:26 437.250
CUBESAT XI-V 27 Jul 18:55:09 18:59:45 73° 286° (WNW) 19:04:22 437.345
CINEMA 3 27 Jul 19:00:11 19:02:59 16° 61° (ENE) 19:05:52 145.822/145.860
GOMX 1 27 Jul 19:00:58 19:05:08 80° 256° (WSW) 19:09:32 467.674
BEESAT 3 27 Jul 19:03:24 19:07:14 58° 121° (ESE) 19:11:08 437.485
NOAA 18 27 Jul 19:05:37 19:11:04 58° 258° (WSW) 19:16:34 137.9125
BEESAT 2 27 Jul 19:10:55 19:14:34 37° 118° (ESE) 19:18:15 435.950
STARS 27 Jul 19:11:29 19:14:09 16° 299° (WNW) 19:16:49 437.465
SEEDS 27 Jul 19:23:56 19:26:14 14° 62° (ENE) 19:28:30 437.485
HO-68 27 Jul 19:33:49 19:40:35 47° 64° (ENE) 19:47:23 435.675
PCSat 27 Jul 19:33:52 19:39:00 45° 114° (ESE) 19:44:09 145.827
COMPASS 1 27 Jul 19:34:56 19:36:55 13° 62° (ENE) 19:38:52 437.405
Cubesat XI-IV 27 Jul 19:42:13 19:46:51 29° 265° (W) 19:51:31 437.490
BRITE-PL 27 Jul 19:42:48 19:44:46 13° 270° (W) 19:46:45 437.365/2234.400
YUBILEINY 27 Jul 19:44:08 19:50:43 22° 61° (ENE) 19:57:14 435.215
AAUSAT CUBESAT 2 27 Jul 20:01:27 20:04:26 20° 65° (ENE) 20:07:26 437.432
CUBEBUG 2 27 Jul 20:02:28 20:05:55 21° 64° (ENE) 20:09:26 437.445
CANX-2 27 Jul 20:05:55 20:10:08 60° 74° (ENE) 20:14:22 2200.000
CUTE-I 27 Jul 20:07:00 20:10:37 18° 269° (W) 20:14:15 437.470
PHONESAT 2.4 27 Jul 20:15:04 20:17:57 37° 185° (S) 20:20:50 2401.200-2431.200
CUTE 1.7 + AOD 2 27 Jul 20:19:10 20:23:26 73° 75° (ENE) 20:27:42 437.475
Oscar 11 27 Jul 20:20:01 20:22:18 14° 62° (ENE) 20:24:35 145.826/435.025
DOVE 4 27 Jul 20:29:45 20:33:06 22° 268° (W) 20:36:37 437.250
CINEMA 3 27 Jul 20:35:03 20:39:32 64° 259° (W) 20:44:18 145.822/145.860
STRAND 1 27 Jul 20:38:57 20:44:04 75° 103° (ESE) 20:49:10 437.568
BEESAT 3 27 Jul 20:42:27 20:45:16 18° 320° (NW) 20:48:06 437.485
ISS 27 Jul 20:44:55 20:46:10 12° 131° (SE) 20:47:25 145.825
O/OREOS (USA 219) 27 Jul 20:48:35 20:52:44 40° 107° (ESE) 20:56:56 437.305
BEESAT 2 27 Jul 20:49:10 20:52:30 25° 316° (NW) 20:55:51 435.950
AO-85 27 Jul 20:51:54 20:53:16 11° 26° (NNE) 20:54:38 145.980
SEEDS 27 Jul 20:57:16 21:01:27 60° 260° (W) 21:05:38 437.485
Cosmos 2504 27 Jul 21:03:28 21:09:29 22° 60° (ENE) 21:15:11 435.465 / 435.565
COMPASS 1 27 Jul 21:07:48 21:11:57 65° 258° (WSW) 21:16:07 437.405
Cosmos 2491 27 Jul 21:09:45 21:17:06 32° 83° (E) 21:24:26 435.465 / 435.565
FUNcube-1 27 Jul 21:12:00 21:16:16 43° 71° (ENE) 21:20:37 145.935
ZACube-1 27 Jul 21:13:14 21:17:35 47° 71° (ENE) 21:22:00 437.345
UWE-3 27 Jul 21:13:58 21:18:31 71° 74° (ENE) 21:23:11 435.000/436.395/437.385
AIST 2 27 Jul 21:16:53 21:20:42 39° 118° (ESE) 21:24:34 435.215
PCSat 27 Jul 21:17:42 21:22:33 32° 313° (NW) 21:27:25 145.827
HO-68 27 Jul 21:21:50 21:28:23 38° 263° (W) 21:35:01 435.675
M-CUBED/EXP-1 PRIME 27 Jul 21:24:15 21:27:39 31° 62° (ENE) 21:31:20 437.505
PRISM 27 Jul 21:32:31 21:36:17 35° 98° (E) 21:40:04 437.425
AAUSAT CUBESAT 2 27 Jul 21:35:45 21:39:39 39° 262° (W) 21:43:35 437.432
CUBEBUG 2 27 Jul 21:37:45 21:42:11 47° 262° (W) 21:46:45 437.445
YUBILEINY 27 Jul 21:39:52 21:48:47 88° 261° (W) 21:57:35 435.215
CANX-2 27 Jul 21:44:19 21:46:23 13° 271° (W) 21:48:26 2200.000
AUBIESAT-1 27 Jul 21:49:22 21:53:05 47° 65° (ENE) 21:57:07 437.475
PHONESAT 2.4 27 Jul 21:51:49 21:54:02 18° 202° (SSW) 21:56:14 2401.200-2431.200
DELFI C3 27 Jul 21:52:23 21:56:16 53° 73° (ENE) 22:00:08 145.870
Oscar 11 27 Jul 21:53:36 21:57:55 65° 258° (WSW) 22:02:15 145.826/435.025
CUTE 1.7 + AOD 2 27 Jul 21:58:44 21:59:46 11° 272° (W) 22:00:48 437.475
ISS 27 Jul 22:18:51 22:22:07 84° 143° (SE) 22:25:23 145.825
STRAND 1 27 Jul 22:19:33 22:22:39 16° 301° (WNW) 22:25:43 437.568
HUMSAT D 27 Jul 22:21:37 22:25:50 55° 73° (ENE) 22:30:03 437.325/437.525
O/OREOS (USA 219) 27 Jul 22:28:41 22:32:17 23° 305° (NW) 22:35:56 437.305
AO-85 27 Jul 22:30:37 22:34:58 47° 49° (NE) 22:38:58 145.980
TIGRISAT 27 Jul 22:36:09 22:39:07 17° 90° (E) 22:42:02 435.000
AISAT 27 Jul 22:36:35 22:37:11 10° 58° (ENE) 22:37:47 437.250
FUNcube-1 27 Jul 22:49:16 22:52:41 21° 268° (W) 22:56:10 145.935
ZACube-1 27 Jul 22:50:50 22:54:06 19° 269° (W) 22:57:24 437.345
UNISAT 6 27 Jul 22:52:07 22:55:58 25° 94° (E) 22:59:44 437.425
UWE-3 27 Jul 22:53:24 22:55:29 13° 272° (W) 22:57:37 435.000/436.395/437.385
Cosmos 2504 27 Jul 22:55:49 23:04:04 84° 263° (W) 23:11:39 435.465 / 435.565
AIST 2 27 Jul 22:55:49 22:59:18 26° 316° (NW) 23:02:49 435.215
M-CUBED/EXP-1 PRIME 27 Jul 22:59:08 23:02:14 24° 261° (W) 23:05:33 437.505
50 SAT 27 Jul 23:04:17 23:06:27 15° 65° (ENE) 23:08:37 437.505
Cosmos 2491 27 Jul 23:04:50 23:13:24 60° 283° (WNW) 23:22:01 435.465 / 435.565
PRISM 27 Jul 23:08:17 23:11:24 21° 295° (WNW) 23:14:31 437.425
ESTCUBE 1 27 Jul 23:10:42 23:14:45 35° 69° (ENE) 23:18:50 437.505/2401.250
SPROUT 27 Jul 23:16:40 23:18:12 12° 60° (ENE) 23:19:43 437.525
CUBEBUG 1 27 Jul 23:23:26 23:27:13 31° 68° (ENE) 23:31:02 437.445
VELOX 1 27 Jul 23:24:21 23:28:07 29° 67° (ENE) 23:31:54 145.980
AUBIESAT-1 27 Jul 23:25:29 23:27:53 16° 265° (W) 23:30:23 437.475
DELFI C3 27 Jul 23:29:33 23:31:26 13° 270° (W) 23:33:19 145.870
ANTELSAT 27 Jul 23:30:04 23:34:41 61° 101° (E) 23:39:10 437.575/2403.000
YUBILEINY 27 Jul 23:38:37 23:44:14 19° 284° (WNW) 23:49:50 435.215
NANOSAT C BR1 27 Jul 23:53:06 23:55:48 16° 91° (E) 23:58:28 145.865
ISS 27 Jul 23:55:59 23:58:50 27° 347° (NNW) 00:01:41 145.825
DUCHIFAT 1 27 Jul 23:56:56 23:59:41 17° 91° (E) 00:02:26 145.980
HUMSAT D 27 Jul 23:59:23 00:01:48 15° 270° (W) 00:04:12 437.325/437.525
DX 1 28 Jul 00:05:30 00:09:44 56° 72° (ENE) 00:13:59 434.975-435.025
AISAT 28 Jul 00:08:32 00:12:55 86° 77° (ENE) 00:17:21 437.250
TISAT 1 28 Jul 00:09:54 00:10:43 10° 59° (ENE) 00:11:32 437.305
TIGRISAT 28 Jul 00:11:36 00:16:10 54° 288° (WNW) 00:20:36 435.000
AO-85 28 Jul 00:11:54 00:15:01 19° 249° (WSW) 00:17:57 145.980
QB50P1 28 Jul 00:15:11 00:18:57 29° 96° (E) 00:22:41 145.935-145.965
UKube-1 28 Jul 00:17:35 00:21:49 60° 73° (ENE) 00:26:05 .
POPSAT HIP 1 28 Jul 00:21:37 00:25:32 33° 97° (E) 00:29:24 437.405
JAS-2 28 Jul 00:26:32 00:29:26 14° 90° (E) 00:32:25 435.910
UNISAT 6 28 Jul 00:28:31 00:32:45 35° 291° (WNW) 00:36:53 437.425
AIST 1 28 Jul 00:34:13 00:38:23 43° 77° (ENE) 00:42:33
50 SAT 28 Jul 00:36:17 00:39:46 40° 261° (W) 00:43:15 437.505
QB50P2 28 Jul 00:42:32 00:46:49 61° 101° (E) 00:51:03 145.880/145.840
POLYITAN 1 28 Jul 00:45:11 00:49:28 62° 101° (E) 00:53:42 437.675
ESTCUBE 1 28 Jul 00:47:58 00:51:38 25° 266° (W) 00:55:19 437.505/2401.250
SPROUT 28 Jul 00:49:14 00:53:30 79° 257° (WSW) 00:57:50 437.525
Cosmos 2504 28 Jul 00:51:30 00:55:57 16° 286° (WNW) 01:00:16 435.465 / 435.565
CUBEBUG 1 28 Jul 00:59:54 01:03:31 26° 265° (W) 01:07:10 437.445
VELOX 1 28 Jul 01:00:43 01:04:31 29° 264° (W) 01:08:22 145.980
ANTELSAT 28 Jul 01:07:59 01:10:53 17° 299° (WNW) 01:13:45 437.575/2403.000
Cosmos 2491 28 Jul 01:08:48 01:12:28 13° 308° (NW) 01:16:10 435.465 / 435.565
ITUPSAT 1 28 Jul 01:17:15 01:19:26 13° 58° (ENE) 01:21:36 437.325
NANOSAT C BR1 28 Jul 01:27:40 01:31:48 49° 288° (WNW) 01:35:54 145.865
DUCHIFAT 1 28 Jul 01:31:31 01:35:38 47° 288° (WNW) 01:39:43 145.980
ISS 28 Jul 01:33:14 01:35:57 23° 7° (N) 01:38:40 145.825
Oscar 19 28 Jul 01:39:14 01:42:43 18° 91° (E) 01:46:10 437.125/150
TISAT 1 28 Jul 01:41:29 01:45:41 87° 259° (W) 01:49:56 437.305
BUGSAT 1 28 Jul 01:42:13 01:46:30 80° 284° (WNW) 01:50:45 437.445
BEESAT 3 28 Jul 01:43:30 01:44:28 11° 32° (NNE) 01:45:25 437.485
DX 1 28 Jul 01:43:54 01:46:17 14° 269° (W) 01:48:40 434.975-435.025
GONETS M04 28 Jul 01:48:01 01:55:38 31° 66° (ENE) 02:03:12
QB50P1 28 Jul 01:51:01 01:54:39 27° 293° (WNW) 01:58:17 145.935-145.965
Cosmos 2499 28 Jul 01:53:13 01:59:00 21° 61° (ENE) 02:04:27 435.465 / 435.565
UKube-1 28 Jul 01:56:09 01:58:15 13° 270° (W) 02:00:23 .
POPSAT HIP 1 28 Jul 01:57:41 02:01:09 24° 294° (WNW) 02:04:36 437.405
SWISSCUBE 28 Jul 02:07:08 02:11:36 40° 69° (ENE) 02:16:04 437.505
JAS-2 28 Jul 02:09:46 02:15:03 76° 286° (WNW) 02:20:46 435.910
AIST 1 28 Jul 02:12:45 02:15:38 17° 274° (W) 02:18:31
QB50P2 28 Jul 02:19:45 02:22:08 15° 298° (WNW) 02:24:30 145.880/145.840
POLYITAN 1 28 Jul 02:22:25 02:24:46 14° 299° (WNW) 02:27:06 437.675
BEESAT 28 Jul 02:28:07 02:32:49 58° 72° (ENE) 02:37:32 436.000
PCSat 28 Jul 02:37:58 02:40:28 13° 31° (NNE) 02:42:58 145.827
ITUPSAT 1 28 Jul 02:51:45 02:56:35 86° 260° (W) 03:01:24 437.325
MOZHAYETS 4 28 Jul 03:02:20 03:05:24 18° 63° (ENE) 03:08:29
Gurwin Techsat 1B 28 Jul 03:05:42 03:10:53 50° 100° (E) 03:16:02 435.225
ISS 28 Jul 03:09:37 03:12:50 59° 27° (NNE) 03:16:04 145.825
ITAMSAT 1 28 Jul 03:15:23 03:19:12 20° 92° (E) 03:23:01 435.822/435.867
Oscar 19 28 Jul 03:17:20 03:22:26 62° 288° (WNW) 03:27:32 437.125/150
BEESAT 3 28 Jul 03:19:03 03:22:59 58° 53° (NE) 03:26:52 437.485
BEESAT 2 28 Jul 03:27:09 03:30:57 40° 49° (NE) 03:34:44 435.950
GONETS M04 28 Jul 03:44:24 03:53:04 65° 268° (W) 04:01:46
Cosmos 2499 28 Jul 03:45:18 03:53:13 80° 264° (W) 04:00:30 435.465 / 435.565
SWISSCUBE 28 Jul 03:45:39 03:49:31 24° 266° (W) 03:53:24 437.505
KKS-1 28 Jul 03:55:55 04:00:15 54° 72° (ENE) 04:04:37 437.445
JAS-2 28 Jul 03:57:51 03:59:22 11° 304° (NW) 04:00:55 435.910
BEESAT 28 Jul 04:07:54 04:10:58 17° 269° (W) 04:14:03 436.000
PCSat 28 Jul 04:19:51 04:25:10 52° 53° (NE) 04:30:27 145.827
CUBESAT XI-V 28 Jul 04:24:45 04:27:31 16° 62° (ENE) 04:30:16 437.345
STARS 28 Jul 04:31:46 04:36:07 65° 74° (ENE) 04:40:31 437.465
CUSAT 1 28 Jul 04:35:39 04:39:34 60° 281° (W) 04:42:40 437.405
MOZHAYETS 4 28 Jul 04:37:36 04:42:09 56° 260° (W) 04:46:43
AO-7 28 Jul 04:41:53 04:49:59 51° 101° (E) 04:58:00 29.400- 29.500
Gurwin Techsat 1B 28 Jul 04:46:19 04:50:32 25° 297° (WNW) 04:54:44 435.225
ISS 28 Jul 04:46:31 04:49:02 21° 224° (SW) 04:51:33 145.825
ITAMSAT 1 28 Jul 04:53:56 04:59:00 54° 290° (WNW) 05:04:02 435.822/435.867
BEESAT 3 28 Jul 04:58:04 05:00:11 14° 250° (WSW) 05:02:19 437.485
BEESAT 2 28 Jul 05:05:29 05:08:33 21° 247° (WSW) 05:11:37 435.950
DANDE 28 Jul 05:06:35 05:12:03 86° 281° (W) 05:16:05 436.750
HORYU 2 28 Jul 05:10:40 05:13:08 14° 90° (E) 05:15:35 437.375
O/OREOS (USA 219) 28 Jul 05:18:33 05:21:04 15° 49° (NE) 05:23:36 437.305
KKS-1 28 Jul 05:34:27 05:37:09 16° 269° (W) 05:39:52 437.445
AIST 2 28 Jul 05:36:25 05:40:26 45° 50° (NE) 05:44:27 435.215
Cosmos 2499 28 Jul 05:41:02 05:44:48 14° 286° (WNW) 05:48:28 435.465 / 435.565
GONETS M04 28 Jul 05:44:56 05:48:02 12° 289° (WNW) 05:51:08
CUBESAT XI-V 28 Jul 05:59:50 06:04:24 63° 260° (W) 06:08:59 437.345
PCSat 28 Jul 06:03:53 06:08:14 25° 252° (WSW) 06:12:34 145.827
BRITE-PL 28 Jul 06:04:27 06:07:44 18° 92° (E) 06:11:08 437.365/2234.400
RS-15 28 Jul 06:05:26 06:14:54 32° 103° (ESE) 06:24:44 29.354- 29.394
STARS 28 Jul 06:10:53 06:12:55 13° 270° (W) 06:14:57 437.465
Cubesat XI-IV 28 Jul 06:18:50 06:21:24 13° 88° (E) 06:23:57 437.490
STRAND 1 28 Jul 06:19:27 06:22:54 18° 60° (ENE) 06:26:20 437.568
AO-7 28 Jul 06:34:57 06:42:36 42° 301° (WNW) 06:50:13 29.400- 29.500
CUTE-I 28 Jul 06:40:56 06:45:02 22° 93° (E) 06:49:05 437.470
HORYU 2 28 Jul 06:45:39 06:50:05 60° 288° (WNW) 06:54:28 437.375
DOVE 4 28 Jul 06:50:01 06:51:34 11° 86° (E) 06:53:08 437.250
O/OREOS (USA 219) 28 Jul 06:56:31 07:01:04 78° 248° (WSW) 07:05:37 437.305
NOAA 15 28 Jul 06:56:49 07:01:45 39° 98° (E) 07:06:39 137.62
GOMX 1 28 Jul 07:00:15 07:04:40 29° 95° (E) 07:09:17 467.674
SO-50 28 Jul 07:13:55 07:15:51 12° 107° (ESE) 07:17:46 436.795
AIST 2 28 Jul 07:15:32 07:18:38 20° 248° (WSW) 07:21:45 435.215
Cosmos 2491 28 Jul 07:17:35 07:23:06 18° 57° (ENE) 07:28:34 435.465 / 435.565
NOAA 18 28 Jul 07:25:54 07:31:20 52° 101° (E) 07:36:42 137.9125
BRITE-PL 28 Jul 07:41:45 07:46:29 60° 287° (WNW) 07:51:37 437.365/2234.400
LilacSat-2 28 Jul 07:47:53 07:51:46 76° 284° (WNW) 07:55:36 437.200
STRAND 1 28 Jul 07:56:26 08:01:33 66° 258° (WSW) 08:06:42 437.568
Cubesat XI-IV 28 Jul 07:56:44 08:02:08 83° 286° (WNW) 08:07:28 437.490
CUTE 1.7 + AOD 2 28 Jul 08:04:52 08:06:02 11° 88° (E) 08:07:12 437.475
RS-15 28 Jul 08:14:31 08:26:06 80° 307° (NW) 08:38:21 29.354- 29.394
CUTE-I 28 Jul 08:20:12 08:25:22 52° 290° (WNW) 08:30:32 437.470
PRISM 28 Jul 08:23:31 08:27:08 32° 69° (ENE) 08:30:46 437.425
DOVE 4 28 Jul 08:24:44 08:29:55 85° 104° (ESE) 08:35:14 437.250
CINEMA 3 28 Jul 08:28:09 08:32:34 30° 94° (E) 08:36:55 145.822/145.860
AO-7 28 Jul 08:31:03 08:33:07 11° 324° (NW) 08:35:12 29.400- 29.500
NOAA 15 28 Jul 08:36:52 08:41:23 30° 295° (WNW) 08:45:53 137.62
GOMX 1 28 Jul 08:38:07 08:42:47 39° 290° (WNW) 08:47:41 467.674
SEEDS 28 Jul 08:40:12 08:43:15 19° 92° (E) 08:46:17 437.485
HO-68 28 Jul 08:46:56 08:53:40 41° 98° (E) 09:00:20 435.675
YUBILEINY 28 Jul 08:48:56 08:55:14 23° 78° (ENE) 09:01:34 435.215
COMPASS 1 28 Jul 08:49:54 08:52:40 17° 92° (E) 08:55:26 437.405
SO-50 28 Jul 08:50:43 08:55:37 89° 116° (ESE) 09:00:29 436.795
UWE-3 28 Jul 09:03:49 09:06:05 14° 88° (E) 09:08:20 435.000/436.395/437.385
NOAA 18 28 Jul 09:07:13 09:11:38 25° 299° (WNW) 09:16:03 137.9125
Cosmos 2491 28 Jul 09:12:48 09:21:36 77° 80° (E) 09:30:23 435.465 / 435.565
AAUSAT CUBESAT 2 28 Jul 09:16:25 09:19:54 26° 95° (E) 09:23:23 437.432
CANX-2 28 Jul 09:24:57 09:29:12 84° 281° (W) 09:33:23 2200.000
CUBEBUG 2 28 Jul 09:27:03 09:31:22 34° 96° (E) 09:35:34 437.445
TIGRISAT 28 Jul 09:36:15 09:39:33 19° 63° (ENE) 09:42:52 435.000
CUTE 1.7 + AOD 2 28 Jul 09:38:09 09:42:21 69° 286° (WNW) 09:46:31 437.475
Cubesat XI-IV 28 Jul 09:38:55 09:41:22 13° 304° (NW) 09:43:49 437.490
Oscar 11 28 Jul 09:39:51 09:43:04 20° 93° (E) 09:46:15 145.826/435.025
